Wind_Speed
69 68 66 66 69 70 72 74 75 76 76 77 78 79 79 79 80 81 81 82 81 81 82 82 83 83 83 83 84 85 85 86 87 88 89 90 91 92 93 95 96 97 99 100 101 102 102 103 104 105 106 106 107 108 109 109 110 110 111 112 112 113 113 114 114 115 115 115 115 115 115 115 115 116 115 115 115 115 115 115 115 114 114 113 112
60 60 61 62 64 66 68 70 71 73 74 75 76 77 77 78 79 80 81 81 81 81 81 82 82 82 82 82 82 82 82 82 83 83 84 84 85 86 87 88 90 91 92 93 95 96 97 98 99 101 102 103 104 105 106 107 108 109 110 111 112 112 113 114 115 115 116 117 117 118 118 118 118 118 118 118 118 118 118 118 118 118 117 116 115
58 59 61 62 63 64 66 67 68 69 69 70 71 72 72 73 75 76 77 78 79 79 80 80 81 82 82 82 82 82 82 82 82 82 82 82 83 83 84 84 85 86 87 88 88 90 90 92 93 95 96 98 99 100 102 103 104 105 106 107 109 110 111 112 113 114 115 116 117 118 119 120 120 120 121 121 121 121 121 121 121 121 120 120 119
58 59 59 59 60 61 63 63 64 65 65 66 66 67 67 68 70 71 72 72 73 74 74 76 77 79 79 79 79 79 80 80 80 81 81 82 82 83 83 84 84 84 84 85 85 86 86 87 88 89 91 92 93 95 96 97 99 100 101 103 104 105 107 108 109 111 112 113 114 116 117 118 120 121 121 122 122 123 123 123 124 124 123 123 122
53 53 53 54 55 56 57 57 58 59 59 59 60 60 61 62 64 65 66 66 67 67 68 69 71 73 74 75 75 75 76 75 75 76 77 78 79 80 81 82 83 83 83 84 84 85 85 86 86 87 88 89 90 91 92 93 94 95 96 98 99 101 102 104 105 107 108 110 111 112 113 115 117 118 120 121 122 123 123 124 124 125 125 125 125
44 44 44 45 46 47 47 48 49 49 49 50 51 52 53 55 57 58 58 59 59 60 61 62 64 66 68 69 69 71 71 71 71 70 70 71 72 73 75 77 78 79 80 80 81 82 83 83 84 85 86 86 87 88 89 89 90 91 92 94 95 96 97 99 101 103 104 106 107 108 110 112 113 115 117 119 120 121 122 123 123 124 125 126 126
35 34 34 35 35 36 37 38 38 39 39 40 42 43 45 47 48 49 50 51 52 52 53 54 56 58 60 61 62 64 65 65 64 64 64 64 65 66 67 69 70 72 73 74 75 77 78 79 80 81 81 82 83 84 85 86 87 88 89 90 91 93 94 96 97 99 101 102 104 105 107 108 110 111 113 115 117 118 119 120 121 122 123 123 124
27 26 27 28 28 28 29 30 30 30 31 32 34 35 37 39 41 43 44 45 46 47 47 48 49 50 51 52 53 54 55 55 56 56 57 57 58 58 59 60 62 64 66 67 69 70 71 72 73 74 75 77 78 79 80 81 83 84 85 87 88 90 92 93 95 96 98 99 100 102 103 105 107 108 109 111 112 113 114 115 117 118 119 120 120
22 21 21 23 23 24 24 24 24 25 26 27 29 30 32 33 35 36 37 39 40 40 41 41 41 42 43 43 44 44 44 45 45 46 48 49 49 50 51 53 54 57 58 60 61 63 64 65 66 67 69 70 72 73 74 76 77 79 81 83 85 87 89 91 92 94 95 97 98 99 101 102 104 104 105 107 108 110 110 111 112 114 115 115 116
18 18 18 18 18 18 18 18 19 20 21 23 25 26 26 26 27 28 29 30 30 30 30 30 31 31 32 32 33 33 34 35 35 37 39 40 41 43 45 46 48 50 51 52 54 55 57 58 60 61 62 64 66 68 69 71 73 75 77 79 81 83 85 87 89 91 92 94 95 96 98 99 100 101 102 104 105 106 107 108 109 110 111 112 112
14 15 15 14 14 14 14 14 15 16 17 19 20 21 20 20 19 19 20 20 20 19 20 20 21 21 22 23 24 25 26 27 28 30 32 34 36 38 39 40 41 43 44 46 47 49 50 52 53 55 57 59 61 63 65 67 69 71 73 75 77 79 80 82 84 86 88 89 91 93 94 95 97 98 99 100 102 103 104 105 106 107 109 109 110
12 13 13 13 13 14 14 15 15 15 16 17 18 17 17 16 15 15 15 14 14 14 15 16 16 17 19 21 22 23 24 25 26 28 30 31 32 33 34 35 36 38 39 41 43 44 46 47 49 51 53 55 57 59 61 63 65 66 68 70 72 74 76 77 79 81 83 84 86 88 89 91 92 93 95 96 98 99 100 101 103 104 105 106 107
11 12 14 14 15 16 16 16 16 16 17 17 17 16 16 15 13 12 13 13 15 16 17 17 18 19 21 22 23 24 25 26 26 27 28 29 30 31 33 34 35 37 38 40 41 43 44 46 48 49 51 53 55 57 58 60 62 63 65 66 68 70 71 73 75 77 78 80 82 84 85 86 88 89 90 92 93 95 96 97 98 99 100 101 102
12 13 14 15 16 17 17 17 17 18 18 18 18 16 15 14 12 12 14 15 17 19 20 21 21 22 22 23 24 25 26 27 27 28 29 30 31 33 34 35 37 38 40 41 42 43 45 46 48 49 51 52 54 55 57 58 60 61 63 64 66 67 69 70 72 74 76 78 79 81 82 83 85 86 87 88 90 91 92 93 94 95 96 97 98
12 14 15 16 18 19 19 18 18 18 19 19 18 16 15 14 14 16 18 20 21 22 23 23 23 23 23 24 25 26 27 27 28 29 29 30 32 33 34 36 38 39 40 41 42 44 45 47 48 50 51 52 53 55 56 57 59 60 61 62 63 65 66 68 70 72 73 75 77 78 79 80 81 82 83 84 85 86 88 89 90 91 92 93 94
13 15 16 17 19 20 20 20 19 19 20 19 18 17 16 16 17 18 20 21 23 23 23 23 23 23 23 24 25 26 27 28 28 30 31 31 32 34 36 37 39 40 41 42 44 45 46 47 49 50 51 52 53 54 55 55 56 57 58 59 60 61 63 65 67 69 70 72 73 74 75 76 76 77 78 79 80 81 82 83 84 86 87 88 90
15 16 17 18 19 20 21 21 20 20 20 20 19 19 18 18 19 20 21 22 23 24 24 24 24 24 24 25 26 28 29 30 31 32 33 34 35 37 38 40 41 41 42 43 44 45 46 47 48 48 49 50 51 51 52 52 53 54 54 55 57 58 60 62 64 65 67 68 69 70 71 71 72 72 73 74 74 75 76 77 79 80 81 82 84
16 17 18 19 20 20 21 21 21 21 22 22 22 21 21 21 21 22 22 23 24 24 25 25 25 26 26 28 29 31 32 33 34 34 35 36 37 38 39 40 41 41 42 42 43 43 44 45 45 46 47 48 48 48 49 50 50 51 52 53 54 56 57 59 61 62 64 65 66 67 68 68 68 69 69 70 70 71 72 73 75 76 77 78 80
17 18 19 20 20 21 21 21 22 23 24 24 24 24 23 23 23 24 24 25 25 26 27 27 27 28 30 32 33 34 35 35 36 36 36 37 37 38 38 38 39 39 39 39 40 41 42 42 43 44 45 46 46 47 47 48 49 49 50 51 52 53 54 56 57 59 61 63 64 65 65 66 66 66 66 67 67 67 68 69 71 72 74 76 77
19 20 21 22 22 21 21 22 23 23 24 25 25 25 25 25 25 26 26 26 27 28 29 29 30 31 33 35 36 36 37 37 36 36 35 35 35 35 35 36 36 36 37 37 39 39 40 41 42 43 43 44 45 45 45 46 46 46 47 48 49 50 52 53 55 57 59 60 62 63 63 64 64 64 63 64 64 64 65 66 68 70 71 73 75
22 23 23 23 23 22 22 22 23 24 24 24 24 24 24 25 26 26 27 27 29 31 31 32 33 35 36 37 37 36 36 35 34 33 33 32 33 33 34 34 34 35 36 37 38 39 40 41 41 42 42 42 42 42 42 42 43 43 44 45 47 48 49 51 52 54 56 58 60 61 61 62 62 62 61 62 62 63 64 65 66 67 69 71 72
24 24 24 24 24 24 24 24 25 26 26 25 25 25 25 26 26 28 29 30 31 33 34 35 36 36 36 36 36 34 33 32 32 31 31 32 32 33 33 33 34 34 35 37 38 39 40 40 40 40 40 40 39 39 39 39 40 41 42 44 45 47 48 49 50 52 54 56 58 59 60 60 60 60 60 60 60 62 63 64 65 66 68 69 70
25 25 25 25 25 25 25 26 26 26 26 27 27 27 28 28 29 30 31 32 33 34 35 35 35 35 34 33 33 32 31 31 31 31 31 32 32 32 32 33 34 35 36 38 38 39 39 39 39 38 38 37 36 36 36 36 38 40 41 43 44 45 46 48 49 50 52 54 55 56 57 58 58 58 58 58 58 59 60 61 62 64 66 67 68
25 26 26 26 26 25 25 25 25 26 26 27 27 28 29 29 30 31 32 33 33 33 33 32 32 32 31 31 31 31 31 31 32 32 32 32 32 32 33 33 35 36 37 38 39 39 38 38 37 37 35 34 33 34 34 35 37 39 40 42 43 44 46 47 48 49 50 51 52 53 54 55 55 55 55 55 55 55 56 56 58 59 61 63 64
26 26 26 25 25 24 24 24 24 25 26 27 28 29 29 29 30 30 31 31 30 29 29 29 29 30 30 30 31 32 32 32 33 32 32 32 32 33 34 35 36 36 37 38 38 38 37 37 36 34 32 31 31 33 33 34 36 38 40 41 42 44 46 47 48 48 49 49 49 49 50 50 51 51 51 50 50 51 51 52 53 54 56 58 60
25 24 24 24 23 23 23 23 24 25 26 27 27 28 28 27 27 27 27 27 27 26 27 27 28 30 30 31 32 33 33 33 33 33 33 33 34 34 35 36 37 37 37 37 37 37 36 36 34 32 30 30 30 32 33 33 35 37 40 42 42 44 45 47 47 47 47 47 47 47 47 47 47 47 47 46 46 46 46 47 49 50 52 55 56
22 22 22 21 21 21 21 22 23 24 24 24 24 24 24 24 24 24 24 24 25 26 27 28 29 30 31 32 33 34 34 35 35 35 35 35 36 36 36 37 37 37 37 37 37 37 36 35 33 30 29 29 30 31 32 33 35 37 40 42 43 43 44 46 46 46 46 45 45 45 45 45 44 44 44 43 43 43 43 44 45 46 48 51 53
18 19 19 19 19 19 19 19 20 20 21 21 21 21 21 22 23 23 24 25 25 26 27 28 29 30 31 32 33 34 35 35 36 36 36 37 37 37 37 38 38 38 38 37 37 36 35 34 31 29 28 28 29 30 31 34 36 37 40 42 43 43 43 45 45 45 45 45 44 43 43 43 43 42 42 41 41 40 40 41 42 44 45 47 49
15 16 16 16 16 16 16 16 17 17 18 19 19 20 20 21 22 24 25 26 27 28 29 29 30 31 32 33 34 35 36 37 37 37 38 38 39 39 39 39 39 39 38 38 37 36 34 32 30 28 28 28 29 29 31 34 36 38 39 41 42 43 43 44 45 45 45 44 44 43 43 42 42 41 41 40 40 39 39 39 40 42 43 44 46
14 14 15 15 15 15 15 15 16 17 18 19 20 20 21 22 23 25 26 27 28 29 30 31 32 33 34 35 36 37 38 38 39 39 39 39 40 40 39 40 40 40 39 37 37 35 32 30 28 27 27 28 29 30 31 33 36 38 39 41 42 43 43 44 44 45 45 44 44 44 43 43 42 41 41 40 39 39 39 39 39 39 41 42 44
12 13 14 14 15 15 15 15 16 17 18 20 21 21 22 23 24 25 27 28 29 30 31 32 33 34 35 36 37 38 39 39 39 39 39 39 39 39 39 39 38 38 37 36 35 33 30 28 27 27 27 28 30 31 33 34 36 38 39 40 41 42 43 43 44 45 45 45 44 44 44 44 43 42 42 42 41 40 39 40 40 39 39 41 42
11 12 13 14 14 15 15 16 17 19 20 21 22 22 23 23 24 26 28 29 30 31 32 33 34 35 35 36 37 38 39 39 38 38 37 37 36 36 36 36 35 35 34 33 32 29 27 27 26 26 27 29 31 33 34 35 37 38 38 39 40 42 42 43 44 45 45 44 44 44 44 45 45 45 44 44 44 43 42 41 42 42 41 41 42
12 13 14 15 16 17 17 18 20 21 22 22 23 24 24 25 26 28 30 31 31 32 32 33 34 35 35 35 36 36 36 35 35 34 34 33 33 32 32 32 32 31 30 29 28 26 26 26 26 25 26 29 32 35 36 37 38 38 39 39 40 42 43 43 44 45 45 45 44 45 45 46 47 48 47 46 46 46 45 44 44 45 45 44 44
15 15 16 17 18 19 20 20 21 22 23 23 25 26 27 28 29 30 31 31 32 31 31 32 33 33 32 32 32 31 31 31 30 30 30 30 30 29 29 29 28 28 26 26 25 25 26 26 25 25 26 28 32 36 37 38 39 39 40 40 41 42 43 44 44 44 45 45 45 46 46 47 48 50 51 50 48 48 48 46 46 47 47 47 47
18 18 19 20 21 21 21 22 22 23 25 26 26 28 29 30 30 30 30 30 30 29 29 28 28 28 27 26 26 26 26 26 26 26 27 26 26 26 25 25 24 24 23 23 24 25 26 26 26 26 27 29 32 35 38 39 39 40 40 42 43 43 44 45 44 45 46 47 47 47 48 49 49 51 53 53 52 51 50 48 47 48 50 50 49
20 21 21 22 23 23 23 24 25 26 26 27 28 29 30 30 29 28 27 26 26 25 24 24 24 24 24 24 24 24 24 23 23 23 23 22 22 21 20 20 20 21 22 23 24 25 26 26 27 28 29 31 33 35 37 39 39 40 41 42 44 45 46 46 46 45 46 48 49 49 50 51 51 52 54 55 55 54 53 51 48 48 51 53 52
23 24 25 25 26 26 26 26 26 26 26 27 27 27 27 26 25 23 23 22 22 22 22 23 24 25 25 25 25 25 24 23 22 21 20 19 18 17 17 18 19 21 23 24 24 25 26 26 28 30 31 33 34 35 36 38 39 40 42 43 44 45 46 47 48 47 47 49 51 52 52 53 53 54 54 55 57 57 56 55 52 49 51 55 56
25 26 26 26 25 25 25 25 25 24 24 24 23 23 22 21 20 20 20 20 21 22 23 24 25 25 26 26 26 26 25 23 22 20 19 17 16 15 16 18 20 22 23 24 24 25 26 27 28 31 33 34 35 36 37 38 40 41 43 44 44 45 46 48 48 48 48 50 52 54 55 56 56 56 56 57 58 59 59 58 56 53 52 55 58
24 24 23 21 20 19 19 20 20 20 19 19 18 18 18 18 18 18 19 20 21 22 23 24 24 24 25 25 25 24 23 22 21 20 19 17 17 17 18 20 22 23 24 24 24 25 26 27 29 31 33 34 36 37 38 38 39 41 44 45 45 45 45 47 48 49 49 51 54 56 57 58 58 57 58 58 59 60 62 61 60 57 55 56 59
17 16 15 14 14 14 14 15 15 15 14 14 15 16 16 16 17 17 19 20 20 21 21 22 22 22 22 22 22 21 21 20 20 19 19 19 19 20 20 21 22 23 23 23 24 25 26 28 30 32 33 35 36 38 39 39 39 39 40 42 44 44 44 45 47 48 50 53 55 57 59 60 60 60 59 60 60 62 64 64 63 60 58 58 60
12 12 12 11 11 11 12 12 12 12 13 14 15 15 15 15 16 18 19 19 20 20 20 19 19 19 19 19 18 18 17 17 16 16 17 17 18 19 20 21 22 22 22 24 25 27 29 30 32 34 35 36 37 38 38 39 39 39 38 38 39 41 42 43 45 48 51 53 55 57 59 61 61 62 62 62 63 64 65 65 64 62 59 59 60
13 13 13 12 12 12 12 12 12 12 13 14 14 14 14 16 17 18 19 20 20 19 18 17 17 17 17 16 16 16 15 15 15 15 15 16 17 18 19 20 21 21 23 25 28 30 32 33 34 35 36 36 36 37 37 37 38 39 39 39 39 40 40 39 42 47 50 52 54 56 59 62 63 63 64 64 65 66 67 66 65 63 61 59 59
16 16 15 15 14 14 13 13 13 14 14 13 13 14 15 16 18 19 20 20 20 20 19 18 18 17 17 17 18 18 18 18 18 17 17 17 18 18 19 20 22 24 26 28 30 31 32 32 33 33 33 34 34 34 35 36 36 38 39 41 43 43 42 41 41 45 50 52 54 56 59 62 64 65 65 66 67 69 68 66 65 64 62 59 56
23 22 21 20 18 16 16 16 15 15 14 14 14 15 16 18 19 20 20 20 20 20 20 19 19 20 20 21 21 21 21 20 20 19 19 18 19 19 20 21 23 24 25 26 27 28 28 29 29 30 31 31 32 33 34 35 36 37 39 42 44 45 46 47 46 47 50 53 55 57 59 62 64 66 66 67 69 71 69 67 65 64 62 57 53
31 31 30 28 26 24 21 19 17 17 16 16 16 16 18 19 20 20 20 20 20 20 20 20 21 22 22 23 23 23 22 22 22 21 21 21 21 21 21 22 23 23 24 25 26 27 28 28 29 30 31 31 32 33 34 35 36 38 39 41 43 45 48 50 52 52 52 54 57 58 60 62 65 66 67 68 70 71 70 68 65 64 61 54 48
35 35 35 34 33 32 29 26 24 23 21 20 20 20 21 21 21 21 21 21 21 21 21 22 23 23 23 23 23 23 23 23 23 23 23 24 24 24 24 24 24 25 26 27 27 28 29 30 31 32 33 33 34 35 35 36 38 39 40 40 41 43 46 49 52 54 55 56 57 59 61 63 65 66 67 69 71 72 71 69 65 62 58 50 42
36 36 36 36 35 35 34 33 32 30 28 27 26 26 25 25 25 25 25 25 25 25 26 26 26 26 26 26 25 25 25 25 25 25 25 25 25 25 25 25 26 27 27 28 29 29 30 31 33 34 35 36 37 37 38 39 40 41 41 42 43 44 46 48 50 52 54 56 58 60 62 64 65 66 68 70 73 73 72 69 66 60 53 44 35
35 35 35 35 35 35 35 35 34 34 32 31 30 29 28 28 27 28 28 28 29 29 30 30 30 30 29 29 29 29 29 29 28 28 28 27 27 27 27 27 28 28 28 29 29 30 31 32 33 34 35 36 37 38 39 40 41 42 43 44 45 46 47 48 49 49 51 54 57 59 62 65 66 67 68 71 73 73 72 70 65 56 47 37 29
34 33 33 33 33 34 34 34 34 34 33 32 31 31 30 29 29 28 28 28 29 29 29 29 29 30 30 30 30 30 30 30 29 29 29 29 30 30 30 30 30 30 30 30 30 31 32 32 33 34 35 36 37 38 39 39 40 41 42 44 45 46 47 48 49 50 52 53 55 57 60 63 66 67 69 72 75 74 72 68 61 51 40 31 22
33 33 32 32 32 32 32 33 32 32 32 32 31 31 31 30 30 30 30 29 29 29 29 29 29 29 29 29 29 29 29 28 28 28 28 28 28 29 29 29 30 30 30 30 30 31 32 32 33 34 35 36 37 38 39 40 41 42 43 44 46 48 49 50 51 52 53 54 55 57 59 62 64 67 70 73 75 74 71 65 55 44 34 25 16
34 34 34 33 33 33 33 33 33 33 32 32 32 32 32 31 31 31 31 30 30 30 30 29 29 29 30 30 29 29 29 29 29 28 28 28 28 28 28 28 29 29 29 30 30 30 31 32 33 35 36 37 38 39 40 41 42 43 45 46 49 51 52 53 53 53 54 55 56 58 60 62 64 67 71 73 74 72 68 60 48 38 29 20 11
Wind_Direction
265 264 263 263 263 262 262 262 262 261 261 262 262 262 262 262 262 262 262 262 262 262 262 262 262 262 262 262 262 262 262 262 262 262 262 262 262 263 263 263 263 263 263 263 264 264 264 265 265 265 265 265 265 265 265 265 264 264 264 264 263 263 263 263 262 262 262 262 261 261 261 261 261 260 260 260 259 259 259 259 259 259 258 258 258
264 264 262 262 263 263 262 262 262 262 262 262 262 262 262 262 262 262 262 262 262 262 262 262 262 262 262 262 262 262 262 262 262 262 262 262 262 262 262 262 262 262 263 263 263 263 264 264 264 265 265 265 265 265 265 265 265 265 265 265 265 264 264 264 264 263 263 263 263 262 262 262 262 262 262 261 261 261 260 260 260 259 259 259 259
262 262 262 262 262 263 263 263 263 263 263 263 263 263 263 263 263 263 263 263 263 263 263 262 262 262 262 262 262 262 263 263 263 263 263 263 263 262 262 262 262 262 262 263 263 263 263 263 264 264 265 265 265 265 265 265 265 265 265 265 265 265 265 265 265 265 264 264 264 264 263 263 263 263 263 263 262 262 262 261 261 261 261 260 260
262 262 263 263 263 263 264 264 264 264 264 264 263 263 263 263 263 264 264 264 264 264 264 263 263 263 263 263 263 263 263 263 263 263 263 263 263 262 262 262 262 262 262 263 263 263 263 263 263 264 264 265 265 265 265 265 265 265 265 266 266 266 265 265 265 265 265 265 265 265 264 264 264 264 263 263 263 263 263 262 262 262 262 262 261
263 263 264 264 264 265 265 265 265 265 265 265 264 264 263 263 263 264 265 265 265 265 265 264 264 263 263 263 263 263 263 263 263 263 263 263 263 262 262 262 262 262 262 262 262 263 263 263 263 263 264 264 264 265 265 265 265 265 265 265 265 265 265 265 265 265 265 265 265 265 265 264 264 264 264 264 264 264 264 263 263 263 263 263 262
263 265 265 265 265 266 266 266 266 266 266 265 265 264 263 262 263 264 265 266 266 266 265 264 263 263 263 263 263 263 263 263 263 263 264 264 263 263 262 262 262 262 262 262 262 262 263 263 263 263 263 264 264 264 265 265 265 265 266 265 265 265 265 265 265 265 265 265 265 264 264 264 264 264 264 264 264 264 264 264 264 264 264 264 263
265 267 268 267 267 267 268 268 268 268 268 267 266 264 263 263 263 264 264 265 265 266 265 264 262 262 263 263 263 262 263 263 264 264 264 264 264 264 263 263 262 262 262 263 263 263 263 263 264 264 264 264 264 265 265 265 265 265 265 265 265 265 265 265 265 265 265 265 265 265 264 264 264 264 264 264 264 264 264 264 264 264 264 264 264
267 268 268 269 269 270 270 271 271 272 271 270 269 267 265 263 263 263 263 263 264 265 264 264 263 263 263 263 263 263 264 264 265 265 265 265 265 265 264 263 263 263 263 263 263 264 264 264 265 265 265 265 265 265 265 265 265 265 265 265 265 265 265 265 265 265 265 265 265 265 265 265 265 265 265 265 265 264 264 264 264 264 264 264 264
266 268 269 271 273 273 273 274 274 274 274 273 271 269 266 265 265 264 264 264 264 264 264 264 263 263 263 263 264 264 264 264 264 264 264 264 264 264 264 264 264 264 264 264 265 265 265 265 265 266 266 266 266 266 266 266 266 266 265 265 265 265 266 266 266 266 266 266 266 266 266 266 266 266 266 266 266 265 265 265 264 264 264 264 264
265 268 269 271 274 276 276 277 277 276 276 274 272 270 268 268 268 268 267 266 265 264 263 262 261 261 262 263 264 264 264 264 263 263 263 263 263 263 263 264 265 265 265 265 266 266 266 266 266 266 266 266 266 266 266 266 266 266 265 265 266 266 266 266 266 267 267 267 267 266 266 266 266 266 266 266 266 266 266 265 265 265 265 264 264
262 266 269 271 273 276 278 281 281 281 282 279 275 272 271 271 272 271 269 268 266 264 264 264 265 267 267 267 266 266 265 264 263 263 263 263 263 264 265 266 266 266 266 266 266 266 266 266 266 266 266 266 266 266 265 265 266 266 266 266 267 267 267 267 267 267 267 267 267 267 267 267 267 267 267 266 266 267 266 266 266 265 265 265 264
261 265 268 270 275 279 281 283 284 286 287 284 280 277 274 273 272 271 271 272 272 274 276 276 275 271 268 267 267 267 266 265 264 264 264 265 266 267 267 267 267 267 267 266 266 266 266 266 266 266 266 266 266 266 266 266 267 267 268 268 268 268 269 269 269 269 268 268 268 268 267 267 267 267 267 267 267 267 266 266 266 266 266 265 265
265 268 271 278 285 288 288 288 289 291 291 287 283 276 272 270 272 275 277 278 277 276 274 273 269 265 264 264 266 267 268 268 267 268 269 270 270 270 270 270 270 269 268 268 268 268 268 267 267 267 267 267 267 268 268 269 269 270 270 270 271 271 271 271 271 271 270 270 270 269 269 269 269 268 268 268 268 268 267 267 267 266 266 266 265
272 277 284 292 296 296 295 295 296 297 296 293 286 278 272 268 267 266 264 264 263 262 263 265 266 266 267 267 268 269 270 270 271 271 272 272 273 273 273 272 272 271 271 270 270 270 270 269 269 269 269 270 270 271 271 272 273 273 273 274 274 274 274 274 273 273 272 272 272 271 271 271 271 270 270 270 269 269 269 269 268 268 267 266 266
286 293 299 300 300 299 297 296 296 296 296 292 285 278 271 264 258 253 250 251 254 257 261 264 266 267 268 268 269 269 270 271 271 272 272 272 273 273 272 272 272 272 272 271 271 271 271 271 271 271 272 272 273 273 274 274 275 275 276 276 276 276 275 275 274 274 274 273 273 273 273 273 272 272 272 272 271 271 270 270 269 269 268 267 266
299 301 300 299 298 296 294 293 292 291 290 287 280 271 264 259 255 254 253 254 256 258 261 263 265 266 267 268 269 269 270 271 272 273 273 273 273 273 273 272 272 273 273 272 272 272 272 272 273 273 274 274 274 275 275 276 276 277 277 277 277 277 277 276 276 275 275 275 275 275 275 275 275 275 274 274 273 273 272 271 270 269 268 267 266
300 298 296 295 294 293 291 290 288 287 286 282 276 268 261 258 257 256 257 257 258 260 262 264 266 268 269 270 271 272 272 273 273 273 274 273 273 272 272 273 273 273 273 273 273 273 273 273 273 274 274 275 275 276 277 277 277 278 278 278 278 278 278 278 278 278 278 278 278 278 278 278 278 278 278 277 277 277 276 275 273 272 271 269 268
294 293 293 293 293 292 290 289 287 284 282 278 273 268 263 260 259 259 260 261 262 264 265 267 269 270 271 272 274 274 275 275 274 274 274 274 273 273 273 273 273 273 272 272 272 272 272 273 273 274 275 276 277 277 278 279 279 279 279 280 280 280 280 280 281 281 281 282 282 282 282 282 282 282 282 282 281 281 280 278 277 276 274 272 270
291 291 293 294 293 291 289 287 284 281 279 276 272 268 265 263 263 264 264 266 267 268 270 271 271 272 274 275 276 277 277 277 276 275 275 275 274 273 273 272 272 272 272 272 272 272 273 274 275 276 277 278 279 280 281 282 282 282 282 281 281 281 281 282 283 284 285 286 286 286 286 286 286 286 285 284 283 282 280 279 277 276 274 273 271
291 292 294 294 292 290 287 284 281 279 278 276 273 269 268 268 268 268 269 270 272 273 274 275 275 275 277 278 278 278 278 277 277 276 276 274 273 271 271 271 271 271 272 272 273 274 275 277 278 279 281 282 284 284 285 284 284 283 283 282 282 283 283 285 286 287 288 289 289 289 290 289 289 289 288 286 285 284 282 280 278 276 274 272 271
293 293 293 292 291 288 285 282 279 277 277 276 274 272 271 272 272 273 272 273 275 276 278 278 279 279 279 278 279 278 278 278 277 276 274 272 270 269 270 271 272 273 273 274 275 277 278 280 282 284 286 287 288 287 286 285 284 284 283 283 284 285 286 287 289 290 292 292 293 293 293 293 293 292 291 290 289 287 285 283 281 278 276 274 272
294 292 290 288 287 284 281 279 277 277 276 276 275 275 274 274 275 275 275 275 276 278 279 280 280 279 279 278 278 278 277 276 275 274 272 271 270 271 272 273 274 275 276 277 278 280 282 285 287 289 290 290 289 287 286 286 286 286 286 286 287 288 290 291 292 294 295 296 296 297 297 296 296 295 294 292 291 289 287 285 282 280 278 275 273
291 288 286 284 282 280 278 277 277 276 276 276 276 276 276 276 277 277 277 277 278 279 279 280 279 279 278 278 278 277 275 274 273 272 272 272 273 274 275 275 276 277 278 280 282 284 286 288 290 292 292 291 288 287 286 287 288 289 289 290 291 293 294 295 297 298 298 299 299 299 298 298 297 296 295 293 291 289 287 285 282 280 278 276 274
288 285 284 282 280 280 279 278 277 276 276 277 277 278 279 279 279 279 279 279 280 280 280 279 279 279 278 278 277 276 275 274 273 273 273 273 274 275 275 276 277 279 280 282 285 287 289 291 292 293 292 290 288 288 288 289 291 292 294 295 297 298 300 301 301 301 301 301 301 300 299 299 298 297 296 295 294 291 289 287 284 282 279 277 275
287 285 283 282 282 282 281 279 278 279 279 280 281 281 281 281 281 280 280 281 281 281 280 280 279 279 279 278 277 277 276 275 275 274 274 274 274 275 276 277 278 280 282 285 287 289 291 293 294 294 291 289 288 288 290 292 295 297 299 300 302 304 305 305 305 306 305 304 303 301 300 300 299 299 298 298 298 297 296 294 291 288 284 281 279
288 286 285 284 284 284 283 283 283 283 284 284 284 284 284 283 283 282 281 281 281 281 281 281 281 281 281 281 280 280 279 278 277 276 276 275 275 276 277 278 280 281 284 286 288 290 292 294 294 293 290 288 288 290 293 296 299 302 303 304 306 308 309 309 310 310 309 308 306 304 303 302 302 301 301 301 302 302 302 301 299 296 292 288 285
291 289 288 288 288 289 289 289 288 287 286 285 284 284 285 284 284 283 282 282 283 283 283 284 284 284 284 284 284 283 282 281 280 279 278 278 277 277 278 279 281 282 284 286 288 290 292 294 293 290 287 287 290 294 298 301 302 304 306 307 309 311 312 313 313 313 313 312 310 309 308 306 305 305 305 306 307 308 309 309 307 304 299 294 290
295 293 292 293 293 293 293 291 288 286 285 284 284 285 285 284 284 285 285 286 286 286 286 286 285 285 285 285 284 284 283 282 282 281 280 279 279 279 279 280 281 282 284 286 288 290 292 293 291 289 287 289 293 297 301 303 304 306 308 310 312 313 315 316 317 317 317 316 315 313 312 311 310 310 310 311 312 313 315 316 315 312 307 300 295
298 296 295 295 294 293 292 289 286 285 285 284 284 284 284 285 287 288 289 289 289 288 288 288 287 286 285 285 284 284 284 284 284 283 282 281 280 280 280 281 282 283 284 287 288 290 291 291 290 288 288 292 296 299 302 304 306 308 310 312 314 316 317 319 320 321 321 320 319 318 317 316 316 315 315 316 317 318 319 321 322 320 315 307 300
298 297 296 295 293 290 288 287 286 286 285 285 285 286 287 288 289 290 291 291 291 290 290 290 289 289 288 288 287 287 287 287 287 286 285 284 283 283 282 282 282 283 285 286 288 289 290 289 289 288 291 295 299 300 303 305 308 311 313 315 316 318 319 321 323 323 324 323 323 323 323 322 321 321 320 319 320 322 322 323 324 325 323 316 306
297 294 292 290 288 287 287 287 286 286 285 286 286 287 287 287 289 291 293 293 293 293 293 293 292 292 292 291 290 290 290 289 288 287 287 286 285 284 284 283 283 284 284 286 287 288 288 288 287 288 292 298 301 304 306 308 310 312 314 316 317 319 320 322 324 325 326 326 326 327 328 328 327 326 325 324 323 324 325 326 325 326 328 325 317
291 289 288 288 287 286 285 285 285 285 285 286 285 284 285 288 292 295 297 297 297 296 295 294 294 293 293 293 292 292 291 291 290 289 288 287 286 284 284 285 284 284 284 285 286 286 287 288 287 289 296 302 305 308 310 311 312 313 315 316 318 319 321 323 324 326 327 328 329 330 332 333 332 331 330 330 329 328 327 328 329 328 328 330 326
284 284 284 283 282 281 281 282 283 284 285 285 285 286 290 293 296 298 299 298 297 297 296 296 296 296 296 295 294 294 294 293 292 291 290 288 287 286 286 285 285 284 284 284 285 286 287 287 287 292 300 305 308 310 312 312 313 314 315 316 318 319 321 323 324 326 327 329 330 332 333 335 336 336 335 335 334 333 331 331 331 331 330 330 330
280 280 280 280 280 281 282 283 285 288 288 288 289 293 296 297 298 299 299 299 299 300 301 301 301 301 301 299 298 298 297 297 295 294 292 290 289 287 286 286 285 285 285 286 287 289 289 287 289 294 299 304 308 311 312 313 314 315 316 316 318 319 321 322 324 326 328 330 331 333 334 336 338 339 338 337 337 336 334 333 333 333 331 331 331
282 283 283 284 285 286 288 289 290 290 291 293 295 297 297 297 298 300 301 302 303 305 307 308 308 308 308 307 307 306 304 303 301 298 295 293 291 289 288 287 287 288 289 290 292 292 291 291 293 297 300 304 308 311 313 314 315 316 317 318 318 319 321 322 324 327 329 331 332 334 335 337 338 340 340 339 338 337 335 334 334 334 332 331 331
286 287 287 288 288 288 288 289 290 292 295 297 298 297 297 299 302 305 307 308 310 313 315 316 316 317 316 314 313 312 310 308 306 303 299 297 295 293 292 291 292 294 296 297 296 295 294 295 297 300 303 306 308 311 313 314 315 316 317 318 318 319 321 323 325 328 331 332 333 334 336 337 338 339 340 339 339 338 336 334 334 335 334 331 331
289 289 290 289 288 288 289 291 294 296 298 298 298 298 301 306 310 313 316 318 319 320 320 320 318 317 315 313 313 311 310 308 307 306 304 302 299 298 297 298 300 301 301 301 299 297 297 299 301 304 306 308 310 311 313 314 315 316 316 317 318 319 321 323 325 328 331 332 333 334 335 336 337 338 339 339 339 338 337 335 333 334 334 332 331
291 292 292 292 291 291 293 296 298 299 299 300 302 306 310 315 320 324 326 326 324 321 319 317 315 313 312 311 310 309 308 306 305 304 304 303 301 300 301 303 304 304 304 303 302 300 299 301 304 306 308 310 311 312 313 314 315 316 316 316 317 319 321 323 325 328 330 331 332 333 334 335 336 338 338 339 339 338 338 336 334 333 334 333 330
294 296 298 298 296 296 297 299 300 302 305 309 313 318 323 328 332 334 333 329 325 321 318 317 315 314 312 311 310 309 308 306 303 301 299 298 298 298 301 304 306 306 306 305 302 301 301 303 305 307 308 310 312 313 314 315 315 316 316 316 317 319 321 323 325 326 329 330 332 332 333 333 334 336 338 338 338 338 338 336 334 333 333 332 329
308 311 314 313 311 309 307 308 311 315 319 323 329 334 339 341 342 341 338 334 330 327 324 322 320 318 318 318 317 315 312 309 306 302 298 297 297 299 304 307 308 308 307 305 304 304 305 306 308 309 310 311 313 314 315 315 315 314 314 314 316 318 321 323 324 325 327 329 331 331 331 332 333 335 337 337 338 338 337 336 334 332 332 331 328
346 347 347 345 341 335 330 328 330 332 337 343 348 350 351 351 350 348 347 344 341 337 334 331 330 332 333 334 332 329 325 321 317 314 310 307 307 309 312 313 313 312 310 309 309 310 311 311 312 312 313 314 315 315 315 315 314 314 314 314 315 318 321 323 324 325 327 328 329 329 330 330 332 334 336 337 337 338 337 335 333 331 330 330 326
25 23 20 16 11 3 356 352 352 355 360 2 2 1 360 358 357 356 356 354 352 350 350 350 351 353 355 356 356 355 354 352 349 345 340 335 331 328 326 324 322 319 316 314 314 314 314 314 314 315 316 316 317 316 316 317 317 318 319 319 320 320 321 323 324 324 325 326 327 328 329 330 331 334 336 336 336 336 336 335 333 330 328 327 323
46 44 40 36 31 26 21 17 16 16 16 15 12 9 6 5 5 5 3 1 1 3 5 9 11 12 14 15 16 16 15 13 11 7 2 355 349 342 337 332 328 323 320 318 317 317 317 317 318 319 320 320 321 321 322 323 324 324 324 324 324 324 324 325 326 326 325 326 327 328 329 330 331 333 334 335 335 335 335 334 332 329 326 324 320
57 54 50 47 43 39 35 31 28 26 24 23 20 18 15 15 14 12 8 6 7 9 12 16 19 22 24 25 25 24 23 21 18 15 10 5 358 352 346 340 335 331 328 327 327 327 327 328 328 329 329 329 329 329 329 329 329 329 329 328 327 327 327 327 328 329 328 328 328 329 329 330 331 332 333 335 334 334 334 333 331 328 324 321 317
59 57 55 53 50 47 44 40 37 35 34 33 32 30 27 25 21 14 10 8 9 11 13 17 22 25 27 27 27 26 26 24 23 21 19 15 11 6 1 355 351 347 345 343 342 342 342 341 340 339 337 336 335 333 332 331 331 331 330 330 329 329 329 329 329 330 330 329 329 329 329 330 330 331 333 334 334 334 334 332 330 326 322 319 314
58 57 56 55 53 52 51 50 49 48 48 47 45 42 37 33 28 22 18 17 18 18 20 23 25 26 26 26 25 24 23 22 21 20 18 16 13 10 6 3 360 357 355 352 351 349 348 346 345 342 340 339 337 335 334 333 332 331 330 330 330 329 329 329 329 329 330 329 329 329 329 329 330 331 333 334 334 335 334 331 328 325 321 318 314
58 56 55 54 53 53 53 53 52 52 52 52 50 49 46 43 40 38 36 36 36 36 35 35 34 33 32 31 29 28 27 25 23 21 18 14 11 7 4 0 357 355 353 351 350 349 348 347 345 343 342 340 339 337 335 333 332 331 330 329 329 328 328 328 328 328 328 328 328 328 329 329 329 331 333 334 335 335 333 330 328 325 322 317 313
58 56 55 54 53 53 52 51 51 50 50 50 49 49 48 46 45 43 43 43 43 42 42 41 41 40 40 39 38 37 36 35 33 31 28 25 21 18 14 10 5 0 357 354 353 352 352 351 350 349 348 346 345 344 341 339 337 335 333 332 331 330 330 329 328 328 328 328 328 329 328 328 329 332 334 335 336 335 333 330 328 326 322 318 314
57 56 55 54 53 52 51 51 50 49 48 47 47 46 45 44 42 41 40 40 40 40 40 40 40 39 39 39 39 39 38 38 36 35 33 31 29 26 23 21 17 14 11 9 7 5 4 3 2 0 359 358 357 356 354 352 350 347 344 342 340 339 337 334 332 330 330 329 329 328 328 328 330 333 335 337 337 336 333 330 328 326 323 319 313
56 55 54 53 52 51 50 50 49 48 47 46 46 45 44 43 42 40 39 38 37 36 35 35 35 35 35 35 34 33 32 31 30 30 28 27 25 24 22 20 18 16 14 13 11 9 7 6 4 3 2 1 1 1 360 358 357 355 353 352 352 350 347 343 339 335 333 331 330 329 329 331 333 335 337 339 338 336 333 331 329 327 324 320 312
56 56 55 54 52 51 51 50 49 48 47 46 46 45 44 43 42 40 39 37 36 35 33 32 31 30 30 29 27 26 24 23 22 21 21 19 18 17 15 13 12 10 9 8 6 4 2 1 0 359 358 358 357 357 357 356 355 355 355 355 355 355 353 351 347 343 338 335 333 332 333 335 336 337 339 341 339 336 333 332 331 329 326 320 306
Height
10777 10778 10778 10775 10773 10773 10772 10772 10771 10771 10771 10771 10770 10769 10770 10770 10769 10769 10769 10770 10770 10771 10771 10771 10771 10771 10771 10770 10770 10770 10770 10770 10770 10770 10771 10772 10772 10772 10772 10772 10772 10772 10771 10771 10771 10772 10773 10772 10771 10771 10771 10771 10772 10772 10773 10775 10775 10775 10776 10777 10777 10778 10778 10779 10779 10779 10780 10780 10781 10781 10782 10782 10782 10781 10782 10784 10784 10784 10785 10785 10787 10788 10789 10792 10795
10770 10771 10771 10768 10767 10766 10765 10765 10765 10764 10764 10764 10763 10763 10763 10763 10761 10761 10762 10763 10763 10764 10764 10764 10764 10764 10764 10764 10763 10763 10763 10763 10763 10763 10764 10764 10765 10765 10765 10764 10764 10764 10764 10764 10764 10764 10765 10764 10763 10763 10763 10763 10763 10763 10764 10765 10766 10766 10766 10766 10767 10767 10768 10768 10768 10769 10769 10770 10770 10770 10771 10771 10771 10771 10772 10773 10773 10774 10775 10775 10776 10777 10779 10782 10784
10765 10765 10764 10763 10761 10760 10759 10759 10759 10758 10758 10758 10757 10757 10757 10756 10754 10754 10755 10756 10756 10757 10757 10757 10756 10756 10757 10757 10757 10757 10757 10757 10756 10756 10757 10758 10758 10758 10757 10757 10757 10757 10757 10757 10757 10757 10757 10757 10756 10756 10755 10755 10755 10755 10755 10756 10756 10757 10756 10756 10757 10757 10757 10757 10758 10758 10758 10758 10758 10758 10759 10760 10760 10761 10761 10761 10762 10762 10763 10764 10765 10766 10768 10770 10772
10760 10758 10758 10757 10755 10754 10753 10753 10753 10753 10752 10752 10751 10751 10750 10749 10748 10748 10749 10749 10749 10750 10750 10750 10750 10750 10750 10750 10750 10750 10750 10750 10750 10750 10750 10750 10750 10750 10750 10749 10750 10750 10750 10750 10750 10750 10750 10750 10749 10749 10748 10748 10747 10747 10747 10747 10747 10747 10747 10747 10747 10747 10747 10747 10747 10747 10747 10747 10747 10747 10747 10748 10748 10749 10749 10749 10750 10750 10752 10753 10753 10755 10756 10758 10760
10754 10752 10752 10752 10750 10749 10748 10748 10748 10747 10747 10746 10745 10745 10744 10743 10742 10743 10743 10743 10743 10743 10743 10743 10743 10743 10743 10743 10743 10743 10743 10743 10743 10743 10743 10743 10743 10743 10742 10742 10743 10743 10742 10742 10742 10742 10742 10742 10742 10742 10741 10741 10740 10740 10739 10739 10739 10738 10738 10738 10738 10737 10737 10736 10736 10736 10736 10736 10736 10736 10736 10735 10736 10737 10737 10737 10739 10739 10740 10741 10742 10744 10744 10746 10748
10749 10748 10748 10747 10746 10745 10744 10743 10743 10742 10742 10741 10740 10739 10739 10738 10738 10738 10738 10738 10737 10737 10737 10737 10737 10737 10737 10737 10737 10736 10736 10736 10736 10737 10737 10736 10735 10735 10735 10735 10735 10735 10735 10735 10735 10734 10735 10734 10734 10734 10734 10733 10733 10733 10732 10732 10731 10731 10730 10729 10729 10728 10727 10726 10726 10726 10726 10726 10726 10725 10725 10724 10725 10725 10725 10725 10727 10728 10729 10730 10731 10732 10733 10735 10735
10745 10746 10745 10743 10742 10741 10740 10740 10739 10738 10737 10736 10735 10735 10734 10734 10734 10734 10733 10733 10733 10732 10732 10732 10732 10732 10732 10731 10731 10730 10730 10731 10731 10731 10730 10729 10729 10729 10729 10728 10728 10728 10728 10728 10728 10727 10727 10727 10727 10726 10726 10726 10726 10725 10724 10724 10724 10723 10722 10721 10720 10719 10718 10717 10716 10716 10716 10716 10716 10715 10715 10714 10714 10715 10716 10715 10715 10718 10718 10719 10720 10721 10721 10723 10724
10743 10743 10742 10740 10738 10738 10737 10736 10735 10734 10733 10733 10732 10732 10731 10730 10730 10730 10729 10729 10728 10728 10728 10728 10727 10727 10726 10726 10725 10725 10726 10726 10726 10725 10724 10723 10723 10723 10722 10722 10722 10722 10722 10721 10721 10721 10721 10720 10720 10719 10719 10719 10719 10718 10717 10716 10715 10715 10714 10712 10711 10710 10709 10708 10707 10707 10707 10707 10707 10706 10705 10704 10704 10705 10706 10704 10704 10707 10708 10709 10709 10709 10710 10711 10713
10740 10740 10739 10737 10736 10735 10734 10734 10733 10732 10731 10730 10729 10729 10728 10727 10727 10726 10726 10725 10725 10725 10724 10724 10723 10722 10721 10721 10721 10721 10721 10721 10721 10719 10718 10718 10718 10718 10717 10717 10717 10717 10716 10716 10716 10715 10715 10714 10714 10713 10713 10712 10712 10711 10710 10708 10707 10706 10705 10704 10703 10702 10701 10700 10699 10699 10698 10698 10698 10697 10696 10695 10695 10696 10696 10694 10694 10695 10697 10698 10697 10698 10698 10700 10701
10738 10738 10737 10735 10734 10733 10732 10732 10731 10730 10728 10728 10727 10726 10725 10724 10723 10723 10723 10722 10722 10721 10721 10720 10718 10718 10718 10718 10718 10717 10717 10717 10716 10715 10714 10714 10714 10713 10713 10713 10712 10712 10712 10711 10710 10710 10709 10709 10708 10707 10707 10705 10704 10703 10702 10701 10699 10698 10697 10696 10695 10695 10693 10692 10692 10691 10690 10689 10689 10688 10687 10686 10685 10687 10686 10685 10684 10684 10685 10686 10686 10686 10686 10688 10689
10736 10736 10735 10734 10733 10732 10731 10730 10729 10728 10727 10726 10725 10723 10722 10722 10721 10721 10720 10720 10719 10718 10717 10716 10716 10716 10715 10715 10715 10714 10714 10713 10712 10711 10711 10710 10710 10710 10710 10710 10709 10708 10707 10707 10706 10705 10704 10704 10703 10702 10700 10699 10697 10696 10695 10694 10693 10691 10690 10689 10688 10688 10687 10686 10684 10683 10682 10681 10679 10678 10678 10677 10676 10677 10676 10675 10674 10674 10673 10674 10675 10674 10673 10675 10677
10734 10734 10734 10732 10731 10730 10729 10728 10727 10726 10725 10724 10723 10721 10720 10720 10719 10719 10719 10718 10717 10716 10715 10714 10714 10714 10713 10713 10712 10712 10711 10710 10710 10709 10708 10708 10708 10707 10707 10706 10705 10704 10703 10702 10701 10701 10700 10699 10698 10696 10694 10693 10691 10690 10689 10688 10687 10686 10685 10683 10682 10681 10680 10679 10677 10675 10673 10671 10670 10669 10669 10668 10668 10667 10666 10666 10664 10664 10663 10663 10663 10663 10662 10662 10663
10733 10733 10732 10730 10729 10728 10727 10726 10725 10724 10723 10722 10721 10720 10719 10718 10717 10717 10717 10716 10715 10714 10713 10713 10713 10712 10711 10710 10710 10709 10708 10707 10707 10706 10706 10705 10705 10704 10703 10702 10701 10701 10700 10699 10698 10697 10696 10694 10693 10691 10689 10687 10686 10685 10684 10682 10681 10680 10679 10677 10676 10674 10673 10671 10669 10666 10664 10662 10661 10659 10659 10659 10658 10657 10656 10655 10654 10653 10652 10652 10652 10652 10651 10650 10650
10732 10731 10730 10728 10727 10726 10725 10724 10723 10722 10721 10720 10719 10718 10717 10716 10716 10716 10715 10714 10713 10712 10711 10711 10710 10709 10709 10708 10707 10706 10705 10704 10704 10703 10703 10702 10701 10700 10700 10698 10697 10696 10696 10695 10694 10692 10691 10689 10688 10686 10684 10683 10682 10681 10679 10678 10676 10675 10673 10672 10670 10668 10666 10664 10661 10658 10656 10654 10652 10651 10650 10650 10649 10648 10647 10646 10645 10643 10642 10641 10640 10640 10639 10639 10638
10730 10729 10728 10726 10725 10724 10723 10722 10721 10720 10718 10717 10716 10716 10715 10714 10714 10714 10713 10712 10711 10710 10709 10708 10707 10707 10706 10705 10704 10703 10702 10701 10700 10700 10699 10699 10698 10697 10696 10695 10693 10692 10692 10691 10690 10688 10686 10684 10683 10681 10680 10679 10677 10676 10675 10673 10671 10670 10668 10666 10664 10661 10659 10656 10653 10650 10648 10646 10644 10643 10642 10641 10640 10639 10637 10636 10635 10633 10632 10630 10629 10628 10627 10626 10626
10728 10727 10725 10724 10723 10722 10721 10720 10719 10717 10716 10715 10714 10713 10712 10712 10712 10711 10711 10710 10708 10707 10707 10706 10705 10704 10703 10702 10701 10700 10699 10698 10697 10696 10696 10696 10695 10693 10692 10691 10689 10688 10687 10686 10685 10683 10681 10680 10678 10677 10676 10674 10673 10671 10670 10668 10667 10664 10662 10660 10657 10655 10651 10648 10645 10643 10641 10639 10637 10635 10634 10633 10631 10630 10628 10627 10625 10623 10621 10619 10617 10615 10614 10614 10613
10726 10725 10723 10722 10721 10720 10719 10718 10716 10715 10714 10713 10712 10711 10710 10710 10709 10709 10708 10707 10706 10705 10704 10703 10702 10701 10700 10699 10698 10696 10696 10695 10694 10693 10692 10692 10691 10689 10688 10686 10685 10684 10683 10681 10680 10678 10676 10675 10674 10673 10671 10669 10668 10667 10665 10663 10661 10659 10657 10654 10651 10648 10645 10642 10639 10636 10634 10632 10630 10628 10627 10625 10623 10621 10619 10617 10615 10613 10611 10608 10605 10604 10602 10601 10600
10724 10722 10721 10720 10719 10718 10717 10715 10714 10713 10712 10711 10710 10709 10708 10708 10707 10707 10706 10705 10703 10703 10702 10700 10699 10698 10697 10696 10695 10693 10692 10692 10691 10690 10689 10688 10686 10685 10683 10682 10681 10679 10678 10677 10675 10673 10672 10671 10670 10668 10667 10665 10664 10662 10660 10658 10656 10653 10651 10648 10645 10642 10639 10636 10633 10631 10628 10625 10623 10621 10619 10617 10615 10613 10611 10608 10606 10603 10600 10598 10594 10592 10590 10589 10588
10721 10720 10719 10718 10717 10716 10714 10713 10712 10710 10709 10708 10707 10707 10706 10706 10705 10705 10703 10702 10701 10700 10699 10698 10697 10695 10694 10693 10691 10690 10689 10688 10687 10686 10685 10683 10682 10680 10679 10677 10676 10675 10674 10672 10671 10669 10668 10667 10665 10664 10663 10661 10659 10657 10655 10653 10650 10648 10645 10642 10639 10636 10634 10631 10629 10626 10623 10620 10617 10614 10612 10610 10608 10605 10603 10600 10597 10594 10591 10587 10584 10581 10579 10577 10575
10718 10717 10716 10715 10714 10713 10712 10711 10709 10708 10707 10706 10705 10705 10704 10703 10703 10702 10701 10699 10698 10697 10696 10695 10694 10693 10691 10689 10688 10687 10685 10684 10682 10682 10681 10679 10678 10676 10675 10673 10672 10671 10670 10668 10667 10665 10664 10663 10661 10660 10658 10656 10654 10652 10650 10647 10645 10642 10640 10637 10634 10632 10629 10627 10624 10621 10618 10614 10611 10608 10605 10602 10600 10597 10594 10591 10588 10584 10580 10577 10574 10570 10567 10565 10563
10716 10715 10713 10712 10711 10710 10709 10708 10707 10706 10704 10703 10703 10702 10702 10701 10700 10699 10698 10697 10695 10694 10693 10692 10690 10689 10687 10685 10684 10683 10681 10680 10679 10678 10677 10676 10674 10672 10671 10670 10669 10667 10666 10664 10663 10661 10660 10658 10657 10656 10654 10651 10649 10647 10644 10642 10640 10637 10635 10632 10630 10627 10625 10622 10619 10616 10612 10609 10605 10602 10598 10595 10592 10589 10585 10582 10578 10574 10570 10567 10563 10560 10557 10554 10552
10713 10712 10711 10709 10709 10708 10707 10706 10705 10703 10702 10701 10700 10699 10699 10698 10697 10696 10695 10694 10692 10691 10690 10688 10687 10685 10683 10682 10680 10679 10678 10676 10675 10675 10673 10672 10670 10669 10667 10666 10665 10663 10662 10660 10659 10657 10656 10654 10653 10651 10649 10647 10644 10642 10640 10638 10635 10633 10630 10628 10625 10623 10620 10618 10614 10611 10606 10603 10599 10595 10591 10588 10584 10580 10577 10573 10569 10565 10561 10557 10553 10549 10546 10543 10541
10711 10710 10708 10707 10707 10706 10705 10704 10702 10701 10700 10699 10697 10697 10696 10695 10694 10693 10691 10690 10689 10688 10686 10685 10683 10681 10680 10678 10677 10676 10675 10673 10672 10671 10670 10668 10667 10665 10664 10662 10661 10659 10658 10656 10655 10653 10652 10650 10649 10647 10645 10642 10640 10637 10636 10634 10631 10628 10626 10623 10621 10618 10615 10612 10609 10605 10601 10597 10592 10588 10584 10581 10577 10573 10569 10565 10561 10557 10552 10548 10544 10539 10535 10533 10530
10709 10708 10706 10705 10704 10704 10703 10702 10700 10699 10697 10696 10695 10694 10693 10692 10691 10690 10688 10687 10686 10685 10683 10682 10680 10678 10677 10675 10674 10672 10671 10670 10669 10668 10666 10665 10663 10661 10660 10658 10657 10655 10654 10652 10650 10649 10647 10646 10644 10643 10640 10638 10636 10633 10632 10630 10627 10624 10621 10618 10616 10613 10610 10606 10603 10599 10595 10591 10587 10582 10578 10574 10570 10566 10561 10557 10553 10549 10544 10539 10535 10530 10526 10522 10520
10707 10705 10704 10703 10702 10701 10700 10699 10698 10696 10695 10694 10693 10692 10691 10690 10689 10687 10685 10684 10683 10682 10680 10679 10677 10675 10674 10672 10671 10669 10668 10667 10665 10664 10663 10661 10659 10658 10656 10654 10653 10651 10650 10648 10646 10645 10643 10642 10640 10638 10636 10634 10632 10630 10628 10626 10623 10619 10616 10614 10611 10608 10604 10601 10597 10594 10589 10585 10581 10577 10572 10568 10563 10559 10555 10550 10545 10540 10536 10531 10526 10522 10517 10513 10510
10704 10703 10701 10700 10699 10699 10698 10697 10695 10694 10693 10692 10691 10689 10688 10687 10686 10684 10683 10682 10680 10679 10677 10676 10674 10672 10671 10669 10668 10666 10665 10663 10662 10660 10659 10657 10656 10654 10652 10650 10649 10647 10646 10644 10643 10641 10640 10638 10636 10635 10633 10631 10629 10626 10624 10621 10619 10615 10612 10609 10607 10604 10600 10595 10592 10588 10584 10580 10575 10571 10567 10562 10557 10553 10548 10544 10539 10534 10529 10524 10519 10514 10509 10504 10501
10702 10700 10699 10698 10697 10696 10696 10695 10694 10692 10691 10690 10689 10687 10686 10685 10683 10682 10681 10679 10678 10676 10675 10673 10671 10670 10668 10666 10664 10663 10661 10660 10658 10657 10655 10654 10652 10650 10648 10647 10645 10644 10642 10641 10639 10638 10636 10634 10633 10631 10629 10627 10625 10623 10620 10617 10615 10612 10608 10605 10602 10599 10595 10591 10587 10583 10579 10574 10570 10566 10561 10556 10551 10547 10542 10538 10533 10528 10523 10518 10512 10507 10502 10498 10494
10700 10698 10697 10696 10695 10695 10694 10693 10692 10691 10689 10688 10687 10685 10684 10683 10681 10680 10678 10677 10675 10674 10672 10671 10669 10667 10665 10663 10661 10659 10657 10656 10655 10653 10651 10650 10648 10647 10645 10643 10641 10640 10639 10637 10635 10634 10633 10631 10629 10627 10626 10624 10622 10619 10617 10614 10611 10608 10605 10601 10598 10595 10591 10587 10582 10578 10574 10569 10565 10560 10556 10551 10546 10541 10536 10532 10527 10522 10518 10512 10507 10502 10496 10492 10487
10698 10697 10696 10695 10694 10693 10692 10691 10690 10689 10687 10686 10685 10684 10682 10681 10679 10677 10676 10675 10673 10671 10669 10668 10666 10664 10662 10660 10658 10656 10654 10652 10651 10649 10648 10646 10644 10643 10641 10640 10638 10636 10635 10633 10632 10631 10629 10627 10625 10624 10622 10620 10618 10616 10614 10611 10607 10604 10601 10598 10594 10591 10587 10583 10578 10574 10569 10565 10560 10555 10551 10546 10541 10535 10531 10526 10522 10517 10512 10508 10502 10497 10491 10486 10481
10697 10696 10695 10694 10693 10692 10691 10690 10688 10687 10685 10684 10683 10682 10680 10679 10677 10675 10674 10672 10670 10668 10666 10665 10663 10661 10659 10657 10654 10652 10650 10649 10647 10645 10644 10642 10640 10639 10637 10636 10634 10633 10631 10630 10628 10627 10626 10624 10622 10620 10618 10617 10614 10612 10610 10608 10604 10601 10597 10594 10590 10587 10583 10579 10574 10570 10565 10561 10555 10550 10545 10541 10536 10531 10526 10521 10517 10512 10507 10502 10497 10492 10487 10481 10476
10696 10695 10694 10693 10691 10690 10689 10688 10687 10685 10684 10682 10681 10680 10678 10677 10675 10673 10671 10669 10667 10665 10663 10661 10659 10657 10656 10653 10651 10649 10647 10645 10643 10641 10640 10638 10636 10635 10633 10632 10630 10629 10628 10626 10625 10624 10622 10621 10619 10617 10615 10613 10611 10608 10606 10604 10601 10597 10594 10590 10587 10583 10579 10575 10571 10566 10561 10556 10551 10546 10541 10535 10530 10526 10521 10515 10511 10507 10502 10497 10492 10487 10483 10477 10471
10695 10693 10692 10691 10690 10689 10687 10686 10685 10683 10682 10680 10679 10677 10676 10675 10673 10671 10668 10666 10664 10662 10660 10658 10656 10654 10652 10650 10647 10645 10643 10641 10639 10637 10636 10634 10632 10631 10629 10628 10627 10626 10624 10623 10622 10621 10619 10618 10616 10614 10612 10609 10607 10604 10602 10599 10597 10594 10591 10587 10583 10579 10576 10572 10567 10562 10558 10553 10548 10542 10536 10531 10525 10520 10515 10510 10505 10500 10496 10492 10486 10481 10477 10472 10467
10693 10692 10690 10689 10688 10687 10686 10685 10683 10681 10680 10679 10677 10675 10674 10672 10671 10668 10666 10663 10661 10659 10657 10654 10652 10650 10648 10646 10644 10642 10639 10637 10635 10633 10632 10630 10628 10627 10626 10625 10623 10622 10621 10620 10619 10618 10616 10615 10613 10612 10609 10607 10603 10600 10598 10595 10593 10590 10587 10584 10580 10576 10572 10568 10564 10559 10554 10549 10544 10538 10533 10527 10521 10514 10509 10504 10500 10494 10490 10485 10480 10475 10470 10466 10461
10691 10690 10689 10687 10686 10685 10684 10683 10682 10680 10678 10677 10675 10673 10671 10670 10668 10666 10663 10660 10658 10656 10654 10651 10649 10646 10645 10642 10640 10638 10636 10634 10632 10630 10629 10627 10625 10624 10623 10622 10621 10620 10619 10618 10617 10615 10613 10612 10611 10609 10607 10605 10601 10597 10594 10591 10588 10585 10582 10579 10576 10573 10568 10564 10561 10556 10550 10545 10540 10534 10529 10523 10517 10511 10504 10499 10494 10489 10484 10479 10475 10469 10464 10460 10455
10689 10688 10687 10686 10684 10683 10682 10681 10680 10678 10676 10675 10673 10671 10669 10667 10665 10663 10661 10658 10655 10653 10651 10649 10646 10644 10642 10640 10638 10636 10634 10632 10630 10628 10626 10624 10623 10622 10620 10619 10618 10617 10617 10615 10614 10613 10611 10610 10608 10606 10604 10602 10599 10595 10591 10587 10584 10581 10578 10574 10571 10568 10564 10560 10556 10552 10546 10541 10536 10531 10525 10519 10514 10508 10501 10495 10489 10484 10479 10474 10470 10464 10458 10453 10449
10688 10687 10686 10684 10682 10681 10680 10679 10678 10676 10675 10673 10670 10668 10666 10664 10663 10661 10659 10656 10653 10651 10649 10647 10644 10642 10640 10638 10636 10634 10632 10630 10628 10626 10624 10622 10621 10620 10619 10618 10617 10616 10615 10613 10612 10610 10608 10607 10605 10603 10601 10599 10596 10592 10588 10584 10580 10577 10574 10570 10567 10563 10559 10555 10551 10548 10543 10537 10532 10527 10521 10515 10510 10504 10498 10491 10485 10479 10474 10468 10465 10460 10453 10447 10442
10686 10685 10683 10682 10680 10679 10677 10676 10675 10674 10672 10670 10668 10666 10664 10662 10661 10659 10657 10654 10651 10649 10648 10646 10643 10641 10639 10637 10635 10632 10630 10628 10626 10624 10622 10621 10619 10618 10617 10616 10615 10614 10612 10611 10609 10608 10606 10604 10602 10599 10597 10595 10592 10589 10586 10581 10577 10573 10570 10567 10563 10559 10555 10550 10546 10542 10538 10533 10528 10522 10517 10511 10505 10500 10494 10488 10481 10474 10469 10462 10458 10454 10448 10441 10435
10684 10682 10681 10679 10678 10676 10675 10674 10673 10672 10670 10668 10666 10664 10662 10661 10659 10657 10655 10653 10650 10648 10646 10644 10642 10640 10638 10635 10633 10631 10628 10627 10624 10623 10621 10619 10618 10617 10616 10614 10613 10611 10610 10608 10607 10605 10603 10601 10599 10596 10593 10591 10588 10585 10583 10579 10574 10570 10566 10563 10560 10556 10551 10546 10542 10537 10533 10529 10524 10518 10512 10506 10501 10496 10490 10484 10477 10470 10464 10457 10451 10447 10442 10436 10429
10682 10680 10678 10677 10675 10674 10673 10672 10671 10669 10668 10666 10664 10663 10661 10659 10657 10656 10654 10652 10650 10648 10645 10643 10640 10638 10635 10633 10631 10628 10626 10624 10622 10621 10619 10618 10616 10615 10614 10612 10611 10609 10607 10606 10605 10603 10601 10599 10596 10594 10591 10588 10585 10582 10579 10576 10572 10567 10563 10559 10555 10552 10548 10543 10537 10533 10529 10524 10519 10513 10508 10502 10496 10491 10486 10479 10473 10466 10459 10452 10446 10441 10436 10430 10423
10680 10678 10677 10675 10674 10672 10671 10670 10669 10668 10666 10665 10663 10662 10660 10658 10657 10655 10653 10651 10649 10646 10644 10641 10638 10636 10633 10631 10628 10626 10624 10622 10620 10619 10617 10616 10615 10614 10612 10611 10609 10607 10606 10604 10602 10601 10599 10596 10594 10591 10588 10585 10582 10579 10575 10572 10569 10566 10562 10557 10552 10549 10546 10541 10535 10530 10525 10519 10514 10509 10503 10498 10491 10485 10480 10474 10467 10461 10454 10447 10441 10435 10429 10423 10416
10679 10678 10676 10674 10673 10672 10671 10669 10668 10667 10665 10664 10662 10661 10660 10658 10657 10655 10653 10651 10648 10645 10642 10640 10637 10634 10631 10629 10626 10624 10622 10620 10618 10617 10616 10615 10613 10612 10610 10609 10607 10606 10604 10602 10600 10598 10596 10593 10591 10588 10585 10582 10578 10575 10572 10568 10564 10561 10559 10556 10552 10547 10543 10539 10533 10527 10522 10516 10510 10505 10499 10493 10487 10480 10474 10468 10461 10455 10449 10442 10436 10429 10423 10417 10409
10679 10677 10676 10674 10673 10672 10670 10669 10668 10666 10665 10664 10663 10661 10660 10659 10657 10655 10653 10651 10648 10645 10642 10639 10636 10633 10631 10628 10626 10623 10621 10619 10617 10616 10614 10613 10612 10610 10609 10607 10606 10604 10602 10600 10598 10595 10593 10590 10587 10584 10581 10578 10574 10571 10567 10564 10560 10556 10553 10550 10547 10544 10540 10537 10532 10525 10519 10514 10508 10501 10495 10488 10481 10475 10468 10462 10456 10450 10444 10437 10430 10422 10416 10411 10403
10679 10678 10676 10674 10673 10672 10670 10669 10667 10666 10665 10664 10663 10662 10661 10659 10657 10655 10653 10650 10648 10645 10642 10639 10636 10634 10631 10628 10626 10624 10621 10619 10617 10615 10614 10612 10611 10609 10608 10606 10604 10602 10600 10598 10596 10593 10590 10587 10584 10581 10578 10574 10571 10567 10564 10560 10556 10552 10548 10544 10540 10536 10533 10531 10529 10523 10515 10510 10504 10497 10490 10483 10476 10470 10464 10457 10450 10444 10438 10431 10424 10415 10408 10403 10396
10680 10679 10677 10675 10674 10672 10670 10669 10668 10667 10666 10665 10664 10663 10661 10660 10658 10655 10653 10651 10648 10645 10643 10640 10637 10634 10632 10629 10627 10624 10622 10620 10618 10616 10614 10612 10610 10609 10607 10605 10603 10601 10598 10596 10593 10591 10588 10585 10582 10578 10575 10572 10568 10565 10561 10557 10553 10549 10544 10539 10534 10529 10525 10521 10520 10517 10510 10503 10498 10492 10485 10479 10472 10465 10459 10452 10445 10438 10431 10424 10417 10409 10401 10396 10388
10682 10680 10678 10677 10675 10673 10671 10670 10669 10668 10667 10666 10665 10663 10662 10660 10658 10656 10654 10652 10649 10646 10644 10641 10638 10635 10632 10630 10628 10626 10623 10621 10619 10616 10614 10612 10610 10608 10606 10604 10602 10600 10597 10594 10592 10589 10586 10583 10580 10576 10573 10570 10566 10563 10559 10555 10551 10547 10542 10537 10531 10525 10520 10514 10510 10508 10505 10498 10492 10486 10480 10474 10468 10461 10454 10447 10440 10433 10425 10417 10410 10402 10393 10387 10381
10684 10682 10681 10679 10677 10676 10674 10673 10671 10670 10669 10667 10666 10664 10662 10661 10659 10657 10655 10652 10650 10647 10644 10642 10639 10636 10633 10631 10629 10627 10624 10622 10619 10617 10615 10613 10611 10609 10607 10604 10602 10599 10596 10594 10591 10588 10585 10581 10578 10575 10571 10568 10565 10561 10557 10553 10549 10545 10541 10537 10532 10526 10520 10514 10507 10501 10498 10494 10488 10481 10476 10470 10464 10457 10449 10442 10434 10426 10418 10409 10402 10394 10386 10380 10375
10687 10685 10684 10682 10681 10679 10677 10676 10674 10672 10671 10669 10667 10666 10664 10662 10661 10658 10656 10654 10651 10648 10645 10642 10640 10637 10635 10632 10630 10628 10625 10623 10620 10618 10616 10614 10611 10609 10607 10604 10601 10599 10596 10593 10590 10587 10584 10580 10577 10573 10570 10566 10563 10559 10555 10552 10548 10544 10539 10535 10531 10526 10521 10516 10509 10502 10495 10489 10483 10476 10470 10464 10458 10452 10444 10436 10428 10419 10410 10402 10394 10386 10379 10373 10369
10689 10688 10687 10685 10684 10682 10680 10678 10676 10674 10673 10671 10670 10668 10666 10664 10662 10660 10658 10655 10652 10650 10647 10644 10642 10639 10636 10634 10631 10629 10626 10624 10621 10619 10617 10614 10612 10609 10607 10604 10601 10598 10595 10592 10589 10586 10582 10579 10575 10572 10568 10564 10561 10557 10553 10549 10545 10541 10536 10532 10527 10523 10518 10513 10508 10502 10495 10488 10480 10473 10465 10458 10452 10447 10440 10431 10422 10413 10403 10394 10385 10378 10372 10367 10364
10692 10691 10689 10688 10686 10684 10682 10680 10678 10677 10675 10674 10672 10670 10668 10666 10664 10662 10659 10657 10654 10651 10649 10646 10644 10641 10638 10635 10633 10630 10628 10625 10623 10620 10618 10615 10612 10610 10607 10604 10601 10598 10595 10592 10588 10585 10581 10578 10574 10570 10567 10563 10559 10556 10552 10547 10543 10538 10533 10529 10524 10519 10514 10509 10503 10497 10491 10485 10479 10472 10464 10456 10448 10441 10434 10425 10415 10405 10396 10387 10378 10371 10366 10362 10360
10694 10693 10692 10690 10688 10686 10684 10682 10680 10679 10677 10676 10674 10672 10670 10668 10666 10663 10661 10658 10656 10653 10651 10648 10645 10642 10639 10637 10634 10632 10629 10627 10624 10621 10619 10616 10613 10610 10607 10604 10601 10598 10595 10592 10588 10585 10581 10577 10574 10570 10566 10562 10558 10554 10550 10545 10540 10536 10531 10526 10521 10516 10510 10504 10499 10492 10486 10480 10474 10467 10460 10454 10446 10437 10429 10420 10409 10398 10389 10380 10372 10366 10361 10358 10357
10697 10695 10694 10692 10690 10689 10687 10685 10683 10681 10679 10677 10675 10673 10671 10669 10667 10665 10662 10660 10657 10655 10652 10649 10646 10643 10641 10638 10636 10633 10631 10628 10625 10622 10619 10616 10613 10610 10607 10604 10601 10598 10595 10591 10588 10584 10581 10577 10572 10568 10564 10560 10556 10552 10548 10543 10538 10533 10529 10524 10519 10513 10508 10502 10496 10489 10483 10476 10469 10463 10456 10449 10442 10434 10424 10415 10405 10393 10383 10375 10367 10361 10358 10355 10355